Silver Bay, MN

12:27 PM CDT on March 28, 2017 (GMT -0500)
Silver Bay Municipal

Weather History for KBFW - November, 2013

Change the Weather History Date:

Thursday, November 14, 2013

  Actual Average Record
Temperature  
Mean Temperature 35 °F -  
Max Temperature 42 °F 35 °F 51 °F (2001)
Min Temperature 28 °F 20 °F -2 °F (2014)
Degree Days  
Heating Degree Days 30    
Moisture  
Dew Point 30 °F    
Average Humidity 84    
Maximum Humidity 100    
Minimum Humidity 65    
Precipitation  
Precipitation 0.00 in - - ()
Sea Level Pressure  
Sea Level Pressure 29.72 in    
Wind  
Wind Speed 0 mph (SE)    
Max Wind Speed 6 mph    
Max Gust Speed -    
Visibility 10 miles    
Events      
Averages and records for this station are not official NWS values.
T = Trace of Precipitation, MM = Missing Value Source: NWS Daily Summary

Daily Weather History Graph

Daily Weather History Graph

Search for Another Location

Airport or City:

Trip Planner

Search our weather history database for the weather conditions in past years. The results will help you decide how hot, cold, wet, or windy it might be!

Date:

Astronomy

Nov. 14, 2013 Rise Set
Actual Time 7:08 AM CST 4:31 PM CST
Civil Twilight 6:35 AM CST 5:04 PM CST
Nautical Twilight 5:58 AM CST 5:41 PM CST
Astronomical Twilight 5:22 AM CST 6:17 PM CST
Moon 3:01 PM CST (11/14) 3:53 AM CST (11/14)
Length of Visible Light 10h 28m
Length of Day
9h 22m
Waxing Gibbous, 92% of the Moon is Illuminated
Nov 14
Waxing Gibbous
Nov 17
Full
Nov 25
Last Quarter
Dec 2
New
Dec 9
First Quarter

Hourly Weather History & Observations

Time (CST) Temp. Windchill Dew Point Humidity Pressure Visibility Wind Dir Wind Speed Gust Speed Precip Events Conditions
12:13 AM 28.4 °F - 26.6 °F 93% 29.73 in 10.0 mi Calm Calm - N/A   Clear
12:33 AM 28.4 °F - 26.6 °F 93% 29.73 in 10.0 mi Calm Calm - N/A   Clear
12:53 AM 33.8 °F - 30.2 °F 87% 29.73 in 10.0 mi Calm Calm - N/A   Clear
1:13 AM 33.8 °F - 30.2 °F 87% 29.73 in 10.0 mi Calm Calm - N/A   Clear
1:33 AM 33.8 °F - 30.2 °F 87% 29.72 in 10.0 mi Calm Calm - N/A   Clear
1:53 AM 33.8 °F - 30.2 °F 87% 29.72 in 10.0 mi Calm Calm - N/A   Clear
2:13 AM 33.8 °F - 30.2 °F 87% 29.72 in 10.0 mi Calm Calm - N/A   Clear
2:33 AM 33.8 °F - 30.2 °F 87% 29.72 in 10.0 mi Calm Calm - N/A   Clear
2:53 AM 32.0 °F - 28.4 °F 87% 29.72 in 10.0 mi Calm Calm - N/A   Clear
3:13 AM 32.0 °F - 30.2 °F 93% 29.72 in 10.0 mi Calm Calm - N/A   Clear
3:33 AM 32.0 °F - 30.2 °F 93% 29.72 in 10.0 mi Calm Calm - N/A   Clear
3:53 AM 33.8 °F - 30.2 °F 87% 29.72 in 10.0 mi Calm Calm - N/A   Clear
4:13 AM 33.8 °F - 30.2 °F 87% 29.72 in 10.0 mi Calm Calm - N/A   Clear
4:33 AM 33.8 °F - 30.2 °F 87% 29.72 in 10.0 mi Calm Calm - N/A   Clear
4:53 AM 33.8 °F - 30.2 °F 87% 29.72 in 10.0 mi Calm Calm - N/A   Clear
5:13 AM 33.8 °F - 30.2 °F 87% 29.72 in 10.0 mi Calm Calm - N/A   Clear
5:33 AM 33.8 °F - 30.2 °F 87% 29.73 in 10.0 mi Calm Calm - N/A   Clear
5:53 AM 33.8 °F - 30.2 °F 87% 29.72 in 10.0 mi Calm Calm - N/A   Clear
6:13 AM 32.0 °F - 30.2 °F 93% 29.72 in 10.0 mi Calm Calm - N/A   Clear
6:33 AM 32.0 °F - 30.2 °F 93% 29.72 in 10.0 mi Calm Calm - N/A   Clear
6:53 AM 33.8 °F - 30.2 °F 87% 29.72 in 10.0 mi Calm Calm - N/A   Clear
7:13 AM 33.8 °F - 30.2 °F 87% 29.73 in 10.0 mi Calm Calm - N/A   Clear
7:33 AM 33.8 °F - 30.2 °F 87% 29.74 in 10.0 mi Calm Calm - N/A   Clear
7:54 AM 33.8 °F - 30.2 °F 87% 29.74 in 10.0 mi Calm Calm - N/A   Clear
8:13 AM 33.8 °F - 30.2 °F 87% 29.73 in 10.0 mi Calm Calm - N/A   Clear
8:33 AM 33.8 °F - 30.2 °F 87% 29.73 in 10.0 mi Calm Calm - N/A   Clear
8:53 AM 33.8 °F - 30.2 °F 87% 29.74 in 10.0 mi Calm Calm - N/A   Clear
9:13 AM 35.6 °F - 30.2 °F 81% 29.74 in 10.0 mi Calm Calm - N/A   Clear
9:33 AM 35.6 °F - 30.2 °F 81% 29.74 in 10.0 mi Calm Calm - N/A   Clear
9:53 AM 35.6 °F - 30.2 °F 81% 29.75 in 10.0 mi Calm Calm - N/A   Clear
10:13 AM 37.4 °F - 30.2 °F 75% 29.75 in 10.0 mi Calm Calm - N/A   Clear
10:33 AM 37.4 °F - 30.2 °F 75% 29.75 in 10.0 mi Calm Calm - N/A   Clear
10:53 AM 39.2 °F - 30.2 °F 70% 29.74 in 10.0 mi Calm Calm - N/A   Clear
11:13 AM 39.2 °F - 30.2 °F 70% 29.73 in 10.0 mi Calm Calm - N/A   Clear
11:33 AM 39.2 °F 35.9 °F 30.2 °F 70% 29.72 in 10.0 mi NNW 4.6 mph - N/A   Clear
11:53 AM 41.0 °F 37.1 °F 30.2 °F 65% 29.71 in 10.0 mi NW 5.8 mph - N/A   Clear
12:14 PM 41.0 °F - 32.0 °F 70% 29.71 in 10.0 mi Calm Calm - N/A   Scattered Clouds
12:33 PM 41.0 °F - 30.2 °F 65% 29.71 in 10.0 mi Calm Calm - N/A   Clear
12:53 PM 41.0 °F - 32.0 °F 70% 29.71 in 10.0 mi Calm Calm - N/A   Clear
1:13 PM 39.2 °F 35.9 °F 33.8 °F 81% 29.71 in 10.0 mi SE 4.6 mph - N/A   Clear
1:33 PM 39.2 °F 37.0 °F 33.8 °F 81% 29.71 in 10.0 mi SSE 3.5 mph - N/A   Clear
1:53 PM 41.0 °F - 33.8 °F 76% 29.71 in 10.0 mi Calm Calm - N/A   Clear
2:13 PM 42.8 °F - 32.0 °F 66% 29.70 in 10.0 mi Calm Calm - N/A   Clear
2:33 PM 42.8 °F 40.1 °F 33.8 °F 70% 29.68 in 10.0 mi SSE 4.6 mph - N/A   Clear
2:53 PM 41.0 °F 37.1 °F 33.8 °F 76% 29.69 in 10.0 mi SE 5.8 mph - N/A   Clear
3:13 PM 39.2 °F 35.9 °F 32.0 °F 75% 29.68 in 10.0 mi SSE 4.6 mph - N/A   Clear
3:33 PM 39.2 °F 37.0 °F 30.2 °F 70% 29.69 in 10.0 mi SE 3.5 mph - N/A   Clear
3:53 PM 37.4 °F - 30.2 °F 75% 29.69 in 10.0 mi Calm Calm - N/A   Clear
4:13 PM 35.6 °F - 30.2 °F 81% 29.70 in 10.0 mi Calm Calm - N/A   Clear
4:34 PM 35.6 °F - 30.2 °F 81% 29.71 in 10.0 mi Calm Calm - N/A   Clear
4:53 PM 35.6 °F - 30.2 °F 81% 29.71 in 10.0 mi Calm Calm - N/A   Clear
5:13 PM 35.6 °F - 30.2 °F 81% 29.70 in 10.0 mi Calm Calm - N/A   Clear
5:33 PM 33.8 °F - 30.2 °F 87% 29.71 in 10.0 mi Calm Calm - N/A   Clear
5:53 PM 33.8 °F - 30.2 °F 87% 29.71 in 10.0 mi Calm Calm - N/A   Clear
6:13 PM 33.8 °F - 30.2 °F 87% 29.71 in 10.0 mi Calm Calm - N/A   Clear
6:33 PM 33.8 °F - 30.2 °F 87% 29.71 in 10.0 mi Calm Calm - N/A   Clear
6:53 PM 33.8 °F - 30.2 °F 87% 29.72 in 10.0 mi Calm Calm - N/A   Clear
7:13 PM 35.6 °F - 30.2 °F 81% 29.72 in 10.0 mi Calm Calm - N/A   Clear
7:33 PM 33.8 °F - 28.4 °F 81% 29.72 in 10.0 mi Calm Calm - N/A   Clear
7:53 PM 33.8 °F - 28.4 °F 81% 29.72 in 10.0 mi Calm Calm - N/A   Clear
8:13 PM 30.2 °F - 28.4 °F 93% 29.72 in 10.0 mi Calm Calm - N/A   Clear
8:33 PM 30.2 °F - 28.4 °F 93% 29.72 in 10.0 mi Calm Calm - N/A   Clear
8:53 PM 30.2 °F - 28.4 °F 93% 29.73 in 10.0 mi Calm Calm - N/A   Clear
9:13 PM 28.4 °F - 26.6 °F 93% 29.73 in 10.0 mi Calm Calm - N/A   Clear
9:33 PM 28.4 °F - 26.6 °F 93% 29.73 in 10.0 mi Calm Calm - N/A   Clear
9:53 PM 28.4 °F - 26.6 °F 93% 29.72 in 10.0 mi Calm Calm - N/A   Clear
10:13 PM 30.2 °F - 28.4 °F 93% 29.72 in 10.0 mi Calm Calm - N/A   Clear
10:33 PM 28.4 °F - 28.4 °F 100% 29.73 in 10.0 mi Calm Calm - N/A   Clear
10:53 PM 30.2 °F - 28.4 °F 93% 29.73 in 10.0 mi Calm Calm - N/A   Clear
11:13 PM 30.2 °F - 28.4 °F 93% 29.72 in 10.0 mi Calm Calm - N/A   Clear
11:33 PM 30.2 °F - 28.4 °F 93% 29.72 in 10.0 mi Calm Calm - N/A   Clear
11:53 PM 30.2 °F - 28.4 °F 93% 29.72 in 10.0 mi Calm Calm - N/A   Clear